Location: Madrid
(40.4167°N, 3.7036°W)
Time: 02:25:06
(UTC+00:00)

ISS - Pass Details

Date: 09 May 2026
Orbit: 414 x 424 km, 51.6° (Epoch: 15 May)

Event Time Altitude Azimuth Distance (km) Brightness Sun altitude
Rises 21:13:15 0° 253° (WSW) 2,341 0.4 -18.8°
Reaches altitude 10° 21:15:26 10° 263° (W) 1,482 -0.5 -19.1°
Maximum altitude 21:18:32 35° 331° (NNW) 686 -2.1 -19.5°
Drops below altitude 10° 21:21:39 10° 40° (NE) 1,490 -0.9 -19.9°
Sets 21:23:51 0° 49° (NE) 2,357 0.0 -20.2°
